Regional Weather Roundup
Issued by NWS

Home | Current Version | Previous Version | Text Only | Print | Product List | Glossary Off
Versions: 1 2 3 4 5 6 7 8 9 10 11 12 13 14 15 16 17 18 19 20 21 22 23 24 25 26 27 28 29 30 31 32 33 34 35 36 37 38 39 40 41 42 43 44 45 46 47 48 49 50

000
ASUS43 KLOT 302110
RWRIL

ILLINOIS REGIONAL WEATHER ROUNDUP
NATIONAL WEATHER SERVICE CHICAGO/ROMEOVILLE IL
400 PM CDT SAT AUG 30 2014

NOTE: "FAIR" INDICATES FEW OR NO CLOUDS BELOW 12,000 FEET WITH NO
SIGNIFICANT WEATHER AND/OR OBSTRUCTIONS TO VISIBILITY.

* THESE STATIONS ARE NOT UNDER NWS QUALITY CONTROL. THEY ALSO MAY NOT
  REPORT WEATHER SUCH AS PRECIPITATION OR FOG.

ILZ001-002-007-009-015-016-024-302200-
NORTHWEST ILLINOIS

CITY           SKY/WX    TMP DP  RH WIND       PRES   REMARKS
MOLINE         MOSUNNY   83  68  60 NW10      29.86F HX  86
STERLING*      CLOUDY    82  70  65 NW13      29.87S HX  86
SAVANNA*       SUNNY     82  64  55 W10       29.86S HX  83
$$

ILZ003-004-008-010-011-017-018-302200-
NORTH CENTRAL ILLINOIS

CITY           SKY/WX    TMP DP  RH WIND       PRES   REMARKS
ROCKFORD       PTSUNNY   79  66  64 W12G23    29.86S HX  81
FREEPORT*      MOSUNNY   80  69  69 W13       29.88S HX  83
ROCHELLE*      MOSUNNY   80  66  62 SW15      29.87S HX  82
DE KALB*       MOSUNNY   78  66  67 W16G22    29.87S HX  80
PERU*          MOSUNNY   83  68  60 W13G18    29.87S HX  86
$$

ILZ005-006-012>014-019>023-302200-
NORTHEAST ILLINOIS

CITY           SKY/WX    TMP DP  RH WIND       PRES   REMARKS
CHICAGO-OHARE  PTSUNNY   82  64  54 SW20G28   29.83F HX  83
CHICAGO-MIDWAY PTSUNNY   86  67  52 W21       29.83F HX  89
AURORA         MOSUNNY   82  67  60 W13       29.86S HX  84
LANSING*         N/A    N/A N/A N/A MISG        N/A
JOLIET*        MOSUNNY   82  64  52 SW13G21   29.86S HX  84
WAUKEGAN       MOSUNNY   80  64  58 SW14G23   29.82S HX  82
DUPAGE AIRPORT MOSUNNY   82  67  60 SW16G24   29.85S HX  84
KANKAKEE*      PTSUNNY   79  73  80 SW10      29.87F HX  83
WHEELING       MOSUNNY   83  64  52 SW13G22   29.84F HX  84
MORRIS*        MOSUNNY   84  69  60 W12G17    29.85F HX  88
ROMEOVILLE*    MOSUNNY   82  65  55 W14G21    29.85F HX  84
NORTHERLY ISL    N/A     83  63  50 W15         N/A  HX  84
$$

LMZ740>746-302200-
SOUTHERN LAKE MICHIGAN

STATION/POSITION SKY/WX   TEMP    WIND        PRES    VSBY  WAVE
                          AIR SEA DIR/SP/G                  HT/PER
                          (F)     (DEG/KT/KT) (MB)    (MI)  (FT/S)
SOUTHERN BUOY              74 69  230/ 14/ 16 1009.3          2/ 5
WAUKEGAN HARBOR            79     250/ 15/ 24   N/A
HARRISON CRIB              81     240/ 22/ 27   N/A
BURNHAM HARBOR             83     270/  7/ 22   N/A
CALUMET HARBOR             81     200/  9/ 17 1009.1F
MICHIGAN CITY              79     190/ 14/ 18   N/A
MICHIGAN CITY 6N           78 72  230/ 12/ 16   N/A           3/ 4
ST. JOSEPH                 75 71  220/ 10/ 16   N/A           3/ 4
$$

ILZ025>027-034>036-040-047-049-050-058-095>099-302200-
WEST-CENTRAL ILLINOIS

CITY           SKY/WX    TMP DP  RH WIND       PRES   REMARKS
QUINCY         SUNNY     85  69  58 W8        29.88F HX  89
GALESBURG*       N/A    N/A N/A N/A MISG        N/A
MACOMB*        SUNNY     83  69  62 W8        29.90S HX  86
JACKSONVILLE*  PTSUNNY   82  75  80 S7        29.90S HX  89
PITTSFIELD*    PTSUNNY   83  70  66 SW8       29.89F HX  86
$$

ILZ028>032-037-038-041>044-048-051>054-059>061-302200-
CENTRAL ILLINOIS

CITY           SKY/WX    TMP DP  RH WIND       PRES   REMARKS
PONTIAC        MOSUNNY   82  73  74 SW12      29.87F HX  88
DECATUR        PTSUNNY   84  72  67 SW16      29.91F HX  89
PEORIA         PTSUNNY   84  70  62 W8        29.87F HX  88
LACON*         MOSUNNY   84  68  59 W8        29.86S HX  87
LINCOLN*       PTSUNNY   86  72  61 SW6       29.85S HX  92
SPRINGFIELD    PTSUNNY   85  72  65 SW9       29.88F THUNDER HX  91
TAYLORVILLE    PTSUNNY   81  73  78 S12       29.90F HX  85
$$

ILZ033-039-045-046-055>057-062-063-302200-
EAST-CENTRAL ILLINOIS

CITY           SKY/WX    TMP DP  RH WIND       PRES   REMARKS
CHAMPAIGN      PTSUNNY   81  72  74 S13       29.92S HX  85
DANVILLE*      HVY RAIN  80  72  77 S15       29.89F HX  83
RANTOUL*       PTSUNNY   84  70  61 S10       29.91F HX  88
MATTOON        CLOUDY    80  70  71 S12G21    29.93S HX  83
PARIS*         CLOUDY    80  73  76 S14       29.94S HX  85
$$

ILZ079-100>102-302200-
SOUTHWEST ILLINOIS

CITY           SKY/WX    TMP DP  RH WIND       PRES   REMARKS
BELLEVILLE     PTSUNNY   83  75  75 E10       29.90F HX  91
CAHOKIA*       PTSUNNY   86  70  58 S10G18    29.89F HX  90
SPARTA*        CLOUDY    80  72  76 S9        29.94F HX  83
$$

ILZ064>066-069>071-074>076-080>082-084>086-088>090-092>094-302200-
SOUTH-CENTRAL ILLINOIS

CITY           SKY/WX    TMP DP  RH WIND       PRES   REMARKS
CARBONDALE     CLOUDY    76  72  87 SE7       29.95F
CAIRO*         CLOUDY    81  73  76 S7        29.99F HX  85
EFFINGHAM*     CLOUDY    79  67  66 S10       29.95R HX  82
MARION         PTSUNNY   77  75  94 S9        29.98F
MT. VERNON     CLOUDY    79  72  78 S10       29.97F HX  82
CENTRALIA*     CLOUDY    79  72  78 S10       29.94F HX  82
SALEM*         CLOUDY    81  74  80 S10G17    29.95F HX  86
METROPOLIS*    LGT RAIN  76  75  97 S3        30.00S
$$

ILZ067-068-072-073-078-083-087-091-302200-
SOUTHEAST ILLINOIS

CITY           SKY/WX    TMP DP  RH WIND       PRES   REMARKS
LAWRENCEVILLE  CLOUDY    78  74  87 S12       29.98S HX  81
FLORA*         CLOUDY    78  71  80 S10       29.97S
FAIRFIELD*     CLOUDY    79  73  83 S8        29.97S HX  82
HARRISBURG*    CLOUDY    76  75  96 S9        29.99S
ROBINSON*      CLOUDY    79  74  83 SW8       29.98S HX  83
CARMI*         CLOUDY    77  74  91 S10       29.98S
$$

ABBREVIATIONS USED IN REMARKS
   TC - TEMPERATURE IN CELSIUS
  WCI - WIND CHILL INDEX
   HX - HEAT INDEX
  VSB - VISIBILITY
$$




USA.gov is the U.S. government's official web portal to all federal, state and local government web resources and services.